Weather History for Menominee, MI

Change the Weather History Date:

Tuesday, November 27, 2012

  Actual Average Record
Temperature  
Mean Temperature 18 °F -  
Max Temperature 28 °F 39 °F 60 °F (1990)
Min Temperature 8 °F 24 °F 5 °F (1982)
Degree Days  
Heating Degree Days 47    
Moisture  
Dew Point 13 °F    
Average Humidity 73    
Maximum Humidity 93    
Minimum Humidity 51    
Precipitation  
Precipitation 0.00 in - - ()
Sea Level Pressure  
Sea Level Pressure 30.21 in    
Wind  
Wind Speed 6 mph (WSW)    
Max Wind Speed 13 mph    
Max Gust Speed 21 mph    
Visibility 10 miles    
Events      
Averages and records for this station are not official NWS values.
T = Trace of Precipitation, MM = Missing Value Source: NWS Daily Summary

Daily Weather History Graph

Daily Weather History Graph

Search for Another Location

Airport:

Trip Planner

Search our weather history database for the weather conditions in past years. The results will help you decide how hot, cold, wet, or windy it might be!

Date:

Astronomy

Nov. 27, 2012 Rise Set
Actual Time 7:04 AM CST 4:11 PM CST
Civil Twilight 6:31 AM CST 4:44 PM CST
Nautical Twilight 5:55 AM CST 5:21 PM CST
Astronomical Twilight 5:20 AM CST 5:56 PM CST
Moon 3:43 PM CST (11/27) 6:08 AM CST (11/27)
Length of Visible Light 10h 12m
Length of Day
9h 06m
Waxing Gibbous, 99% of the Moon is Illuminated
Nov 27
Waxing Gibbous
Nov 28
Full
Dec 6
Last Quarter
Dec 13
New
Dec 19
First Quarter

Hourly Weather History & Observations

Time (CST) Temp. Windchill Dew Point Humidity Pressure Visibility Wind Dir Wind Speed Gust Speed Precip Events Conditions
12:15 AM 12.2 °F 6.1 °F 10.4 °F 92% 30.32 in 10.0 mi West 3.5 mph - N/A   Clear
12:35 AM 12.2 °F 4.3 °F 10.4 °F 92% 30.32 in 10.0 mi West 4.6 mph - N/A   Clear
12:55 AM 10.4 °F 4.0 °F 8.6 °F 92% 30.32 in 10.0 mi WNW 3.5 mph - N/A   Clear
1:15 AM 10.4 °F 4.0 °F 6.8 °F 85% 30.33 in 10.0 mi WNW 3.5 mph - N/A   Clear
1:35 AM 10.4 °F 2.2 °F 8.6 °F 92% 30.33 in 10.0 mi WNW 4.6 mph - N/A   Clear
1:55 AM 10.4 °F 2.2 °F 6.8 °F 85% 30.33 in 10.0 mi WNW 4.6 mph - N/A   Clear
2:15 AM 10.4 °F - 8.6 °F 92% 30.33 in 10.0 mi Calm Calm - N/A   Clear
2:35 AM 10.4 °F 4.0 °F 8.6 °F 92% 30.32 in 10.0 mi West 3.5 mph - N/A   Clear
2:55 AM 10.4 °F - 8.6 °F 92% 30.31 in 10.0 mi Calm Calm - N/A   Clear
3:15 AM 10.4 °F 4.0 °F 6.8 °F 85% 30.31 in 10.0 mi West 3.5 mph - N/A   Clear
3:35 AM 10.4 °F 4.0 °F 5.0 °F 79% 30.31 in 10.0 mi West 3.5 mph - N/A   Clear
3:55 AM 8.6 °F 0.1 °F 5.0 °F 85% 30.30 in 10.0 mi West 4.6 mph - N/A   Partly Cloudy
4:15 AM 10.4 °F 2.2 °F 6.8 °F 85% 30.30 in 10.0 mi West 4.6 mph - N/A   Mostly Cloudy
4:35 AM 10.4 °F 2.2 °F 6.8 °F 85% 30.30 in 10.0 mi West 4.6 mph - N/A   Mostly Cloudy
4:55 AM 10.4 °F 4.0 °F 3.2 °F 73% 30.29 in 10.0 mi West 3.5 mph - N/A   Partly Cloudy
5:15 AM 8.6 °F 2.0 °F 5.0 °F 85% 30.30 in 10.0 mi WSW 3.5 mph - N/A   Clear
5:35 AM 10.4 °F 4.0 °F 5.0 °F 79% 30.30 in 10.0 mi West 3.5 mph - N/A   Clear
6:15 AM 10.4 °F 0.8 °F 8.6 °F 92% 30.29 in 10.0 mi WSW 5.8 mph - N/A   Clear
6:35 AM 10.4 °F 2.2 °F 6.8 °F 85% 30.28 in 10.0 mi WSW 4.6 mph - N/A   Clear
6:55 AM 10.4 °F 0.8 °F 6.8 °F 85% 30.28 in 10.0 mi West 5.8 mph - N/A   Clear
7:15 AM 10.4 °F 0.8 °F 8.6 °F 92% 30.29 in 10.0 mi WSW 5.8 mph - N/A   Mostly Cloudy
7:35 AM 12.2 °F 1.7 °F 6.8 °F 79% 30.28 in 10.0 mi WSW 6.9 mph - N/A   Mostly Cloudy
7:55 AM 12.2 °F -0.2 °F 10.4 °F 92% 30.28 in 10.0 mi WSW 9.2 mph - N/A   Overcast
8:15 AM 14.0 °F 2.9 °F 12.2 °F 93% 30.27 in 10.0 mi WSW 8.1 mph - N/A   Overcast
8:35 AM 14.0 °F 2.9 °F 10.4 °F 86% 30.27 in 10.0 mi SW 8.1 mph - N/A   Overcast
8:55 AM 15.8 °F 4.2 °F 10.4 °F 79% 30.27 in 10.0 mi WSW 9.2 mph - N/A   Overcast
9:15 AM 15.8 °F 5.1 °F 12.2 °F 86% 30.27 in 10.0 mi WSW 8.1 mph - N/A   Mostly Cloudy
9:35 AM 17.6 °F 5.0 °F 10.4 °F 73% 30.26 in 10.0 mi SW 11.5 mph - N/A   Mostly Cloudy
9:55 AM 17.6 °F 5.0 °F 10.4 °F 73% 30.26 in 10.0 mi SW 11.5 mph 16.1 mph N/A   Mostly Cloudy
10:15 AM 19.4 °F 10.4 °F 10.4 °F 68% 30.26 in 10.0 mi WSW 6.9 mph 18.4 mph N/A   Scattered Clouds
10:35 AM 21.2 °F 8.9 °F 10.4 °F 63% 30.25 in 10.0 mi WSW 12.7 mph 20.7 mph N/A   Partly Cloudy
10:55 AM 23.0 °F 13.9 °F 12.2 °F 63% 30.24 in 10.0 mi WSW 8.1 mph 17.3 mph N/A   Scattered Clouds
11:15 AM 24.8 °F 14.6 °F 12.2 °F 59% 30.23 in 10.0 mi West 10.4 mph 18.4 mph N/A   Mostly Cloudy
11:35 AM 24.8 °F 13.4 °F 12.2 °F 59% 30.22 in 10.0 mi WSW 12.7 mph 18.4 mph N/A   Overcast
11:55 AM 26.6 °F 17.5 °F 14.0 °F 59% 30.21 in 10.0 mi WSW 9.2 mph 18.4 mph N/A   Overcast
12:15 PM 26.6 °F 16.2 °F 12.2 °F 55% 30.20 in 10.0 mi WSW 11.5 mph 18.4 mph N/A   Overcast
12:35 PM 26.6 °F 16.8 °F 12.2 °F 55% 30.19 in 10.0 mi WSW 10.4 mph 18.4 mph N/A   Overcast
12:55 PM 28.4 °F 18.5 °F 12.2 °F 51% 30.19 in 10.0 mi WSW 11.5 mph 19.6 mph N/A   Overcast
1:15 PM 28.4 °F 20.4 °F 14.0 °F 55% 30.18 in 10.0 mi WSW 8.1 mph 17.3 mph N/A   Overcast
1:35 PM 28.4 °F 18.0 °F 14.0 °F 55% 30.17 in 10.0 mi WSW 12.7 mph 19.6 mph N/A   Overcast
1:55 PM 28.4 °F 18.5 °F 14.0 °F 55% 30.16 in 10.0 mi SW 11.5 mph - N/A   Overcast
2:15 PM 28.4 °F 20.4 °F 15.8 °F 59% 30.16 in 10.0 mi SW 8.1 mph - N/A   Overcast
2:35 PM 28.4 °F 18.5 °F 15.8 °F 59% 30.15 in 10.0 mi SW 11.5 mph 17.3 mph N/A   Overcast
2:55 PM 28.4 °F 19.1 °F 15.8 °F 59% 30.14 in 10.0 mi SW 10.4 mph - N/A   Overcast
3:15 PM 28.4 °F 18.0 °F 17.6 °F 64% 30.13 in 10.0 mi SW 12.7 mph 16.1 mph N/A   Overcast
3:35 PM 28.4 °F 19.1 °F 15.8 °F 59% 30.12 in 10.0 mi SW 10.4 mph - N/A   Overcast
4:15 PM 28.4 °F 18.5 °F 17.6 °F 64% 30.11 in 10.0 mi SW 11.5 mph 17.3 mph N/A   Overcast
4:35 PM 28.4 °F 19.7 °F 15.8 °F 59% 30.12 in 10.0 mi WSW 9.2 mph 16.1 mph N/A   Overcast
4:55 PM 28.4 °F 18.5 °F 15.8 °F 59% 30.12 in 10.0 mi SW 11.5 mph 16.1 mph N/A   Overcast
5:15 PM 28.4 °F 20.4 °F 15.8 °F 59% 30.12 in 10.0 mi WSW 8.1 mph - N/A   Overcast
5:35 PM 28.4 °F 20.4 °F 14.0 °F 55% 30.11 in 10.0 mi SW 8.1 mph - N/A   Overcast
5:55 PM 28.4 °F 20.4 °F 14.0 °F 55% 30.11 in 10.0 mi WSW 8.1 mph - N/A   Overcast
6:15 PM 28.4 °F 19.7 °F 14.0 °F 55% 30.11 in 10.0 mi WSW 9.2 mph - N/A   Overcast
6:35 PM 28.4 °F 19.7 °F 14.0 °F 55% 30.10 in 10.0 mi WSW 9.2 mph - N/A   Overcast
6:55 PM 28.4 °F 20.4 °F 12.2 °F 51% 30.11 in 10.0 mi WSW 8.1 mph - N/A   Overcast
7:15 PM 28.4 °F 21.2 °F 14.0 °F 55% 30.10 in 10.0 mi WSW 6.9 mph - N/A   Overcast
7:35 PM 28.4 °F 20.4 °F 14.0 °F 55% 30.11 in 10.0 mi WSW 8.1 mph - N/A   Overcast
7:55 PM 28.4 °F 20.4 °F 14.0 °F 55% 30.11 in 10.0 mi WSW 8.1 mph - N/A   Overcast
8:15 PM 28.4 °F 19.7 °F 15.8 °F 59% 30.11 in 8.0 mi West 9.2 mph 20.7 mph N/A   Overcast
8:35 PM 28.4 °F 18.5 °F 17.6 °F 64% 30.12 in 7.0 mi West 11.5 mph 16.1 mph N/A   Overcast
8:55 PM 26.6 °F 16.2 °F 19.4 °F 74% 30.12 in 4.0 mi West 11.5 mph 17.3 mph N/A   Overcast
9:15 PM 26.6 °F 19.1 °F 21.2 °F 80% 30.12 in 8.0 mi West 6.9 mph - N/A   Overcast
9:35 PM 26.6 °F 18.2 °F 21.2 °F 80% 30.12 in 10.0 mi West 8.1 mph - N/A   Mostly Cloudy
9:55 PM 26.6 °F 21.2 °F 21.2 °F 80% 30.12 in 10.0 mi West 4.6 mph - N/A   Overcast
10:15 PM 26.6 °F 20.0 °F 21.2 °F 80% 30.12 in 10.0 mi West 5.8 mph - N/A   Overcast
10:35 PM 26.6 °F 21.2 °F 21.2 °F 80% 30.12 in 10.0 mi West 4.6 mph - N/A   Mostly Cloudy
10:55 PM 26.6 °F 22.6 °F 21.2 °F 80% 30.12 in 10.0 mi West 3.5 mph - N/A   Scattered Clouds
11:15 PM 24.8 °F 17.9 °F 21.2 °F 86% 30.12 in 10.0 mi West 5.8 mph - N/A   Mostly Cloudy
11:35 PM 24.8 °F 17.9 °F 19.4 °F 80% 30.13 in 10.0 mi West 5.8 mph - N/A   Partly Cloudy
11:55 PM 24.8 °F 17.9 °F 19.4 °F 80% 30.13 in 10.0 mi West 5.8 mph - N/A   Clear